GW3202 Weather Reports


time (UTC)temp
F
wind
direction
speed
knots
gust
knots
rain 1hr
in
rain 24hr
in
rain mn
in
humidity
%
barometer
mb
20260507185004 88 290 1.7 10.4 0.00 0.00 0.00 29 1018.6
20260507184003 86 168 5.2 10.4 0.00 0.00 0.00 30 1018.5
20260507183003 87 173 2.6 10.4 0.00 0.00 0.00 29 1018.6
20260507182003 87 155 6.1 10.4 0.00 0.00 0.00 30 1018.7
20260507181004 88 170 0.9 7.0 0.00 0.00 0.00 31 1018.8
20260507180003 87 282 2.6 7.0 0.00 0.00 0.00 33 1018.9
20260507175003 87 78 1.7 7.0 0.00 0.00 0.00 34 1019.1
20260507174003 85 158 0.9 5.2 0.00 0.00 0.00 33 1019.3
20260507173004 84 147 1.7 5.2 0.00 0.00 0.00 32 1019.5
20260507172004 84 72 0.9 5.2 0.00 0.00 0.00 33 1019.5
20260507171004 83 227 0.0 5.2 0.00 0.00 0.00 31 1019.5
20260507170003 82 327 1.7 5.2 0.00 0.00 0.00 33 1019.7
20260507165003 80 321 3.5 5.2 0.00 0.00 0.00 37 1019.7
20260507163004 81 259 0.9 4.3 0.00 0.00 0.00 36 1019.7
20260507153003 77 117 0.9 2.6 0.00 0.00 0.00 50 1020.1
20260507152005 75 54 0.9 2.6 0.00 0.00 0.00 58 1020.2
20260507151006 73 340 1.7 2.6 0.00 0.00 0.00 62 1020.1
20260507150006 74 188 0.9 2.6 0.00 0.00 0.00 62 1020.2
20260507145004 72 53 0.9 2.6 0.00 0.00 0.00 65 1020.1
20260507144004 73 99 0.9 2.6 0.00 0.00 0.00 64 1020.1
20260507143003 70 35 0.9 2.6 0.00 0.00 0.00 66 1020.3
20260507142004 69 329 0.9 1.7 0.00 0.00 0.00 67 1020.2
20260507141003 69 41 0.0 2.6 0.00 0.00 0.00 69 1020.0
20260507135004 67 149 0.9 1.7 0.00 0.00 0.00 72 1020.0
20260507134004 64 98 1.7 2.6 0.00 0.00 0.00 77 1020.0
20260507133004 63 120 2.6 2.6 0.00 0.00 0.00 79 1020.0
20260507132004 62 113 0.9 1.7 0.00 0.00 0.00 80 1020.1
20260507131004 62 35 0.0 1.7 0.00 0.00 0.00 80 1019.9
20260507130003 61 92 1.7 1.7 0.00 0.00 0.00 82 1019.9
20260507125003 60 126 0.9 2.6 0.00 0.00 0.00 82 1019.8
20260507124004 60 107 2.6 2.6 0.00 0.00 0.00 83 1019.8
20260507123004 60 240 0.0 0.9 0.00 0.00 0.00 83 1019.8
20260507122004 60 256 0.0 1.7 0.00 0.00 0.00 82 1019.7
20260507121007 60 289 0.9 2.6 0.00 0.00 0.00 81 1019.6
20260507120008 62 262 0.0 2.6 0.00 0.00 0.00 81 1019.7
20260507114003 62 113 0.9 2.6 0.00 0.00 0.00 81 1019.6
20260507113005 62 145 0.0 2.6 0.00 0.00 0.00 81 1019.4
20260507112004 62 108 0.9 2.6 0.00 0.00 0.00 81 1019.4
20260507111003 61 123 1.7 1.7 0.00 0.00 0.00 81 1019.3
20260507110004 61 110 1.7 1.7 0.00 0.00 0.00 81 1019.2
20260507104004 60 252 0.9 2.6 0.00 0.00 0.00 80 1019.2
20260507103004 62 245 0.9 1.7 0.00 0.00 0.00 79 1019.0
20260507102006 62 255 0.0 2.6 0.00 0.00 0.00 81 1019.0
20260507101004 62 93 1.7 2.6 0.00 0.00 0.00 80 1019.0
20260507100004 62 133 0.0 1.7 0.00 0.00 0.00 80 1019.1
20260507095004 62 155 0.9 1.7 0.00 0.00 0.00 79 1019.1
20260507094004 62 90 0.0 1.7 0.00 0.00 0.00 79 1019.2
20260507093003 62 88 1.7 1.7 0.00 0.00 0.00 79 1019.0
20260507092003 62 316 0.0 2.6 0.00 0.00 0.00 79 1019.3
20260507090005 64 98 0.0 2.6 0.00 0.00 0.00 79 1019.2
20260507085004 64 131 0.9 1.7 0.00 0.00 0.00 78 1019.2
20260507082004 64 285 0.0 1.7 0.00 0.00 0.00 76 1019.6
20260507075004 64 67 1.7 2.6 0.00 0.00 0.00 75 1019.9
20260507074003 65 113 1.7 2.6 0.00 0.00 0.00 75 1020.0
20260507073004 65 107 0.9 2.6 0.00 0.00 0.00 74 1020.2
20260507072004 65 110 1.7 4.3 0.00 0.00 0.00 73 1020.0
20260507071006 65 129 2.6 4.3 0.00 0.00 0.00 73 1020.3
20260507070009 65 150 0.9 2.6 0.00 0.00 0.00 74 1020.3
20260507065004 65 15 0.0 2.6 0.00 0.00 0.00 73 1020.5
20260507064004 65 96 1.7 2.6 0.00 0.00 0.00 71 1020.5
20260507062004 65 113 0.9 2.6 0.00 0.00 0.00 70 1020.5
20260507060004 65 81 0.9 2.6 0.00 0.00 0.00 69 1020.7
20260507055004 65 105 0.9 2.6 0.00 0.00 0.00 69 1020.8
20260507054004 65 254 0.0 4.3 0.00 0.00 0.00 69 1020.7
20260507053004 65 269 0.9 5.2 0.00 0.00 0.00 68 1020.8
20260507052004 66 333 2.6 4.3 0.00 0.00 0.00 65 1020.6
20260507051004 67 273 0.9 1.7 0.00 0.00 0.00 64 1020.5
20260507050004 67 264 1.7 6.1 0.00 0.00 0.00 63 1020.6
20260507045004 69 6 0.9 4.3 0.00 0.00 0.00 66 1020.5
20260507044004 69 180 0.0 1.7 0.00 0.00 0.00 71 1020.6
20260507043004 69 273 0.0 5.2 0.00 0.00 0.00 72 1020.5
20260507042004 69 255 1.7 7.8 0.00 0.00 0.00 71 1020.5
20260507041004 70 111 3.5 7.8 0.00 0.00 0.00 72 1020.5
20260507040005 70 139 1.7 14.8 0.00 0.00 0.00 74 1020.2
20260507034005 70 135 10.4 19.1 0.00 0.00 0.00 74 1020.0
20260507033005 70 157 8.7 22.6 0.00 0.00 0.00 73 1019.8
20260507032027 70 134 5.2 20.0 0.00 0.00 0.00 73 1019.8
20260507031005 70 131 7.0 14.8 0.00 0.00 0.00 72 1019.7
20260507025004 71 144 8.7 21.7 0.00 0.00 0.00 69 1019.2
20260507024004 71 151 12.2 22.6 0.00 0.00 0.00 69 1019.1
20260507023004 71 125 11.3 24.3 0.00 0.00 0.00 66 1018.9
20260507022003 72 126 10.4 24.3 0.00 0.00 0.00 62 1018.9
20260507021004 72 124 10.4 22.6 0.00 0.00 0.00 63 1018.5
20260507020005 72 143 7.0 21.7 0.00 0.00 0.00 61 1018.5
20260507015004 73 140 9.6 21.7 0.00 0.00 0.00 60 1018.2
20260507014004 73 150 14.8 22.6 0.00 0.00 0.00 60 1018.1
20260507013004 73 152 11.3 30.4 0.00 0.00 0.00 59 1018.1
20260507012004 73 151 3.5 30.4 0.00 0.00 0.00 62 1018.1
20260507011004 74 167 11.3 24.3 0.00 0.00 0.00 62 1017.9
20260507010005 75 157 17.4 22.6 0.00 0.00 0.00 60 1017.9
20260507005004 75 159 13.9 25.2 0.00 0.00 0.00 58 1017.7
20260507004004 77 166 8.7 22.6 0.00 0.00 0.00 55 1017.5
20260507002004 78 153 12.2 21.7 0.00 0.00 0.00 53 1017.4
20260507001004 79 139 9.6 24.3 0.00 0.00 0.00 53 1017.3
20260507000005 79 182 7.8 19.1 0.00 0.00 0.00 49 1017.4
20260506235005 80 196 5.2 21.7 0.00 0.00 0.00 50 1017.4
20260506234005 81 162 6.1 21.7 0.00 0.00 0.00 46 1017.3
20260506233005 81 150 13.9 21.7 0.00 0.00 0.00 46 1017.4
20260506232005 82 198 7.0 19.1 0.00 0.00 0.00 46 1017.2
20260506231005 82 151 8.7 22.6 0.00 0.00 0.00 45 1017.2
20260506230006 82 154 4.3 19.1 0.00 0.00 0.00 47 1017.3
20260506224005 82 172 13.0 20.9 0.00 0.00 0.00 48 1017.2
20260506223004 83 155 10.4 17.4 0.00 0.00 0.00 48 1017.2
20260506222005 83 163 8.7 20.9 0.00 0.00 0.00 48 1017.3
20260506221025 84 202 5.2 24.3 0.00 0.00 0.00 49 1017.4
20260506220004 84 167 11.3 26.9 0.00 0.00 0.00 50 1017.4
20260506214004 85 146 5.2 19.1 0.00 0.00 0.00 49 1017.7
20260506213004 85 151 10.4 20.9 0.00 0.00 0.00 47 1017.6
20260506211004 85 166 7.0 21.7 0.00 0.00 0.00 44 1017.7
20260506210004 87 160 6.1 18.2 0.00 0.00 0.00 43 1017.8
20260506205004 86 153 10.4 18.2 0.00 0.00 0.00 43 1017.9
20260506204004 86 119 1.7 21.7 0.00 0.00 0.00 43 1017.9
20260506203004 86 137 5.2 19.1 0.00 0.00 0.00 44 1018.0
20260506202004 86 158 5.2 17.4 0.00 0.00 0.00 42 1018.2
20260506201004 86 142 7.0 17.4 0.00 0.00 0.00 43 1018.3
20260506200005 87 196 7.8 15.6 0.00 0.00 0.00 39 1018.5
20260506195004 86 241 4.3 13.9 0.00 0.00 0.00 40 1018.8
20260506194004 87 200 4.3 13.0 0.00 0.00 0.00 38 1018.7
20260506193004 87 257 4.3 13.0 0.00 0.00 0.00 39 1018.7
20260506191004 87 223 2.6 14.8 0.00 0.00 0.00 40 1019.0